HIMAWARI-9

Last updated on Fri Oct 11 2024 00:02:17 GMT+0000 (Coordinated Universal Time)

1 41836U 16064A 24284.53799486 -.00000270 00000+0 00000+0 0 9998 2 41836 0.0329 177.2718 0000856 40.0127 136.8080 1.00270485 29042
UTC large
Height (km)
Speed (km/s)
/
Latitude / Longitude
Inclination (degrees)
Orbital Period (minutes)
Azimuth
Elevation
Range (km)
Doppler Factor

Next 0 passes for location: London (51.5072 / 0.1276)

Sorry there are no passes over London.